Location: Napoli
(40.8639°N, 14.2562°E)
Time: 21:31:33
(UTC+02:00)

ISS - Visible Passes

Search period start: 03 October 2023 00:00
Search period end: 13 October 2023 00:00
Orbit: 414 x 421 km, 51.6° (Epoch: 03 October)

Date Brightness Start Highest point End Pass type
(mag) Time Alt. Az. Time Alt. Az. Time Alt. Az.
03 Oct -3.8 19:19:12 10° NW 19:22:33 83° NNE 19:25:54 10° SE visible
03 Oct -0.7 20:57:55 10° WSW 20:58:50 11° SW 20:59:01 11° SW visible
04 Oct -1.3 20:08:26 10° W 20:10:53 19° SW 20:13:19 10° S visible
05 Oct -2.1 19:19:47 10° WNW 19:22:49 32° SW 19:25:51 10° SSE visible
07 Oct -0.6 19:21:31 10° WSW 19:22:43 12° SW 19:23:55 10° SSW visible
